Location: Arnolds Mill
(42.3415°N, 73.5951°W)
Time: 11:19:15
(UTC+00:00)

BlueWalker 3 - Pass Details

Date: 25 June 2024
Orbit: 480 x 492 km, 53.2° (Epoch: 13 July)

Event Time Altitude Azimuth Distance (km) Brightness Sun altitude
Rises 01:32:15 0° 271° (W) 2,540 6.3 -9.1°
Reaches altitude 10° 01:34:45 10° 287° (WNW) 1,660 5.7 -9.4°
Maximum altitude 01:37:46 23° 341° (NNW) 1,080 4.5 -9.8°
Drops below altitude 10° 01:40:47 10° 35° (NE) 1,660 4.7 -10.2°
Sets 01:43:18 0° 50° (NE) 2,540 5.5 -10.5°
